Tracking 30696 objects as of 15-Jun-2025
HD Live streaming from Space Station
objects crossing your sky now

ASTRANIS UTILITYSAT

Track ASTRANIS UTILITYSAT now!


NORAD ID: 62454
Int'l Code: 2024-252A
Perigee: 4,194.6 km
Apogee: 67,358.8 km
Inclination: 8.7 °
Period: 1,435.2 minutes
Semi major axis: 42147 km
RCS: Unknown
Launch date: December 29, 2024
Source: United Kingdom (UK)
Launch site: AIR FORCE EASTERN TEST RANGE (AFETR)
Your satellite tracking list
Your tracking list is empty




NASA's NSSDC Master Catalog

Two Line Element Set (TLE):
1 62454U 24252A   25164.25509312 -.00000069  00000-0  00000-0 0  9997
2 62454   8.7468 344.5448 7493196 209.7710  70.4947  1.00332596  1723
Source of the keplerian elements: AFSPC